{"data":{"norad_id":69455,"intl_designator":"2026-127N","name":"STARLINK-37642","alt_names":[],"object_type":"PAYLOAD","status":"ACTIVE","operator":null,"country":"US","launch_date":"2026-06-08","launch_site_code":"AFETR","launch_vehicle":null,"mission":null,"orbit_class":"UNKNOWN","rcs_meters":null,"size_class":null,"mass_kg":null,"dimensions":null,"purposes":["comms"],"wikipedia_slug":null,"has_3d_model":false,"image_url":null,"decayed_at":null,"tle_current":{"epoch":"2026-09-20T00:48:17.106048Z","epoch_age_seconds":65779,"freshness":"FRESH","line1":"1 69455U 26127N   26263.03353132  .00021064  00000+0  63229-3 0  9993","line2":"2 69455  53.1566 167.6677 0001474  88.3815 271.7356 15.34425127 16121","mean_motion":15.34425127,"eccentricity":0.0001474,"inclination_deg":53.1566,"raan_deg":167.6677,"arg_perigee_deg":88.3815,"mean_anomaly_deg":271.7356,"bstar":0.00063229,"rev_number":1612,"period_min":93.846221276068,"perigee_km":461.62022964365,"apogee_km":463.63688733029,"semimajor_km":6840.765558487,"source":"CELESTRAK","updated_at":"2026-09-20T09:00:44.201081Z"}}}